When you browse on this site, cookies collect data to enhance your experience and personalize the content and advertising you see.
Visit our Privacy Policy to learn more. By continuing to use the site, you agree to this use of cookies and data.
  • In Portugal
  • List of Countries
  • For 7 days
  • Water Temperature
  • Satellite Maps
  • Weather Map
  • Weather Widgets
  • user-avatar
    Login

    Hourly Weather Shishovka

    Today, 21 July, Sunday

    Time Temperature Precipitation Wind Pressure Humidity
    00:00 +18°C° 0 mm 1 mps 739 mmHg 92%
    01:00 +16°C° 0 mm 1 mps 738 mmHg 93%
    02:00 +16°C° 0 mm 1 mps 738 mmHg 93%
    03:00 +16°C° 0 mm 1 mps 738 mmHg 92%
    04:00 +16°C° 0 mm 1 mps 739 mmHg 92%
    05:00 +18°C° 0 mm 1 mps 739 mmHg 90%
    06:00 +19°C° 0 mm 1 mps 739 mmHg 88%
    07:00 +19°C° 0 mm 2 mps 739 mmHg 86%
    08:00 +20°C° 0 mm 2 mps 738 mmHg 80%
    09:00 +21°C° 0 mm 3 mps 738 mmHg 75%
    10:00 +22°C° 0 mm 3 mps 738 mmHg 69%
    11:00 +24°C° 0 mm 3 mps 738 mmHg 67%
    12:00 +24°C° 0 mm 3 mps 738 mmHg 65%
    13:00 +24°C° 0 mm 3 mps 738 mmHg 63%
    14:00 +24°C° 0 mm 3 mps 738 mmHg 64%
    15:00 +25°C° 0 mm 3 mps 738 mmHg 64%
    16:00 +25°C° 0 mm 3 mps 738 mmHg 65%
    17:00 +22°C° 0.3 mm 3 mps 738 mmHg 73%
    18:00 +21°C° 0.3 mm 2 mps 738 mmHg 80%
    19:00 +20°C° 0.3 mm 2 mps 738 mmHg 88%
    20:00 +19°C° 0.1 mm 2 mps 738 mmHg 90%
    21:00 +18°C° 0.1 mm 2 mps 737 mmHg 93%
    22:00 +17°C° 0.1 mm 2 mps 737 mmHg 95%
    23:00 +16°C° 0 mm 2 mps 737 mmHg 95%

    Tomorrow, 22 July, Monday

    Time Temperature Precipitation Wind Pressure Humidity
    00:00 +16°C° 0 mm 2 mps 737 mmHg 96%
    01:00 +15°C° 0 mm 2 mps 737 mmHg 96%
    02:00 +15°C° 0 mm 2 mps 737 mmHg 96%
    03:00 +14°C° 0 mm 2 mps 737 mmHg 96%
    04:00 +14°C° 0 mm 1 mps 737 mmHg 96%
    05:00 +15°C° 0 mm 1 mps 737 mmHg 94%
    06:00 +16°C° 0 mm 1 mps 737 mmHg 93%
    07:00 +18°C° 0 mm 1 mps 737 mmHg 91%
    08:00 +18°C° 0 mm 2 mps 737 mmHg 85%
    09:00 +20°C° 0 mm 2 mps 737 mmHg 78%
    10:00 +21°C° 0 mm 3 mps 737 mmHg 72%
    11:00 +21°C° 0.2 mm 3 mps 737 mmHg 71%
    12:00 +22°C° 0.2 mm 3 mps 737 mmHg 70%
    13:00 +22°C° 0.2 mm 4 mps 736 mmHg 70%
    14:00 +22°C° 0.5 mm 3 mps 736 mmHg 72%
    15:00 +22°C° 0.5 mm 3 mps 736 mmHg 74%
    16:00 +22°C° 0.5 mm 3 mps 736 mmHg 77%
    17:00 +21°C° 0.5 mm 3 mps 736 mmHg 81%
    18:00 +20°C° 0.5 mm 2 mps 736 mmHg 85%
    19:00 +20°C° 0.5 mm 2 mps 736 mmHg 88%
    20:00 +18°C° 0.2 mm 2 mps 735 mmHg 90%
    21:00 +17°C° 0.2 mm 2 mps 735 mmHg 92%
    22:00 +16°C° 0.2 mm 1 mps 735 mmHg 94%
    23:00 +15°C° 0 mm 1 mps 735 mmHg 94%

    Day after tomorrow, 23 July, Tuesday

    Time Temperature Precipitation Wind Pressure Humidity
    00:00 +15°C° 0 mm 1 mps 735 mmHg 95%
    01:00 +14°C° 0 mm 1 mps 735 mmHg 95%
    02:00 +14°C° 0 mm 1 mps 735 mmHg 96%
    03:00 +14°C° 0 mm 1 mps 735 mmHg 96%
    04:00 +13°C° 0 mm 1 mps 735 mmHg 97%
    05:00 +14°C° 0 mm 1 mps 735 mmHg 96%
    06:00 +15°C° 0 mm 1 mps 735 mmHg 96%
    07:00 +16°C° 0 mm 2 mps 735 mmHg 95%
    08:00 +17°C° 0 mm 2 mps 735 mmHg 93%
    09:00 +17°C° 0 mm 3 mps 735 mmHg 91%
    10:00 +18°C° 0 mm 3 mps 736 mmHg 89%
    11:00 +19°C° 0.1 mm 3 mps 736 mmHg 85%
    12:00 +20°C° 0.1 mm 3 mps 736 mmHg 81%
    13:00 +20°C° 0.1 mm 3 mps 736 mmHg 78%
    14:00 +20°C° 0.7 mm 3 mps 736 mmHg 80%
    15:00 +21°C° 0.7 mm 3 mps 736 mmHg 82%
    16:00 +21°C° 0.7 mm 3 mps 737 mmHg 84%
    17:00 +20°C° 0.5 mm 3 mps 737 mmHg 86%
    18:00 +20°C° 0.5 mm 3 mps 737 mmHg 89%
    19:00 +19°C° 0.5 mm 2 mps 737 mmHg 92%
    20:00 +18°C° 0.3 mm 2 mps 737 mmHg 93%
    21:00 +17°C° 0.3 mm 2 mps 737 mmHg 94%
    22:00 +16°C° 0.3 mm 2 mps 737 mmHg 95%
    23:00 +16°C° 0.1 mm 2 mps 737 mmHg 95%

    24 July, Wednesday

    Time Temperature Precipitation Wind Pressure Humidity
    00:00 +16°C° 0.1 mm 1 mps 738 mmHg 95%
    01:00 +16°C° 0.1 mm 1 mps 738 mmHg 95%
    02:00 +16°C° 0 mm 1 mps 738 mmHg 95%
    03:00 +15°C° 0 mm 1 mps 738 mmHg 94%
    04:00 +15°C° 0 mm 1 mps 738 mmHg 94%
    05:00 +16°C° 0 mm 1 mps 739 mmHg 93%
    06:00 +18°C° 0 mm 1 mps 739 mmHg 92%
    07:00 +19°C° 0 mm 1 mps 739 mmHg 90%
    08:00 +20°C° 0.2 mm 1 mps 739 mmHg 85%
    09:00 +20°C° 0.2 mm 2 mps 739 mmHg 79%
    10:00 +23°C° 0.2 mm 2 mps 740 mmHg 73%
    11:00 +23°C° 0.1 mm 2 mps 740 mmHg 72%
    12:00 +24°C° 0.1 mm 3 mps 740 mmHg 71%
    13:00 +24°C° 0.1 mm 3 mps 740 mmHg 69%
    14:00 +24°C° 0.5 mm 3 mps 740 mmHg 73%
    15:00 +22°C° 0.5 mm 3 mps 740 mmHg 77%
    16:00 +22°C° 0.5 mm 3 mps 740 mmHg 81%
    17:00 +23°C° 0.5 mm 2 mps 740 mmHg 85%
    18:00 +21°C° 0.5 mm 2 mps 740 mmHg 89%
    19:00 +21°C° 0.5 mm 2 mps 741 mmHg 92%
    20:00 +19°C° 0 mm 2 mps 741 mmHg 93%
    21:00 +18°C° 0 mm 2 mps 741 mmHg 94%
    22:00 +18°C° 0 mm 1 mps 741 mmHg 94%
    23:00 +18°C° 0 mm 1 mps 741 mmHg 94%

    25 July, Thursday

    Time Temperature Precipitation Wind Pressure Humidity
    00:00 +16°C° 0 mm 1 mps 741 mmHg 94%
    01:00 +16°C° 0 mm 1 mps 741 mmHg 94%
    02:00 +16°C° 0 mm 1 mps 741 mmHg 94%
    03:00 +15°C° 0 mm 1 mps 741 mmHg 94%
    04:00 +15°C° 0 mm 1 mps 741 mmHg 94%
    05:00 +16°C° 0 mm 1 mps 742 mmHg 92%
    06:00 +18°C° 0 mm 1 mps 742 mmHg 91%
    07:00 +19°C° 0 mm 1 mps 742 mmHg 90%
    08:00 +19°C° 0 mm 0 mps 742 mmHg 83%
    09:00 +21°C° 0 mm 0 mps 742 mmHg 76%
    10:00 +23°C° 0 mm 0 mps 742 mmHg 69%
    11:00 +25°C° 0.3 mm 1 mps 742 mmHg 68%
    12:00 +25°C° 0.3 mm 1 mps 742 mmHg 66%
    13:00 +26°C° 0.3 mm 2 mps 742 mmHg 65%
    14:00 +26°C° 0.3 mm 2 mps 742 mmHg 67%
    15:00 +25°C° 0.3 mm 2 mps 742 mmHg 70%
    16:00 +25°C° 0.3 mm 2 mps 741 mmHg 73%
    17:00 +24°C° 0.1 mm 2 mps 741 mmHg 76%
    18:00 +24°C° 0.1 mm 1 mps 741 mmHg 79%
    19:00 +23°C° 0.1 mm 1 mps 741 mmHg 83%
    20:00 +21°C° 0 mm 1 mps 741 mmHg 85%
    21:00 +20°C° 0 mm 1 mps 741 mmHg 87%
    22:00 +16°C° 0 mm 0 mps 741 mmHg 89%
    23:00 +16°C° 0 mm 0 mps 741 mmHg 89%

    26 July, Friday

    Time Temperature Precipitation Wind Pressure Humidity
    00:00 +16°C° 0 mm 0 mps 741 mmHg 89%
    01:00 +15°C° 0 mm 0 mps 740 mmHg 89%
    02:00 +15°C° 0 mm 0 mps 740 mmHg 88%
    03:00 +16°C° 0 mm 1 mps 740 mmHg 87%
    04:00 +16°C° 0 mm 1 mps 739 mmHg 86%
    05:00 +18°C° 0 mm 1 mps 739 mmHg 85%
    06:00 +17°C° 0 mm 0 mps 739 mmHg 85%
    07:00 +18°C° 0 mm 0 mps 739 mmHg 84%
    08:00 +21°C° 0 mm 1 mps 739 mmHg 80%
    09:00 +22°C° 0 mm 1 mps 739 mmHg 76%
    10:00 +24°C° 0 mm 2 mps 738 mmHg 72%
    11:00 +24°C° 0.4 mm 2 mps 738 mmHg 72%
    12:00 +24°C° 0.4 mm 3 mps 737 mmHg 73%
    13:00 +25°C° 0.4 mm 3 mps 737 mmHg 74%
    14:00 +25°C° 0.7 mm 4 mps 737 mmHg 76%
    15:00 +23°C° 0.7 mm 4 mps 736 mmHg 78%
    16:00 +23°C° 0.7 mm 4 mps 736 mmHg 81%
    17:00 +22°C° 0.9 mm 4 mps 735 mmHg 85%
    18:00 +22°C° 0.9 mm 3 mps 735 mmHg 89%
    19:00 +21°C° 0.9 mm 3 mps 734 mmHg 93%
    20:00 +20°C° 0.1 mm 3 mps 734 mmHg 94%
    21:00 +18°C° 0.1 mm 2 mps 734 mmHg 96%
    22:00 +17°C° 0.1 mm 2 mps 734 mmHg 97%
    23:00 +17°C° 0 mm 2 mps 734 mmHg 97%
    Show more